Location: Fredericksburg
(30.2750°N, 98.8720°W)
Time: 20:54:23
(UTC-05:00)

PCSat - Visible Passes

Search period start: 27 May 2015 00:00
Search period end: 06 June 2015 00:00
Orbit: 786 x 795 km, 67.1° (Epoch: 26 May)

Date Brightness Start Highest point End Pass type
(mag) Time Alt. Az. Time Alt. Az. Time Alt. Az.
27 May 12.1 01:03:42 13° NE 01:03:42 13° NE 01:04:19 10° NE visible
27 May 11.6 02:44:25 20° NNW 02:44:25 20° NNW 02:47:05 10° N visible
28 May 11.5 02:14:10 24° NNW 02:14:10 24° NNW 02:16:47 10° N visible
29 May 11.5 01:43:52 26° N 01:43:52 26° N 01:46:21 10° N visible
30 May 11.5 01:13:31 25° NNE 01:13:31 25° NNE 01:15:47 10° NNE visible
31 May 11.5 00:43:06 23° NNE 00:43:06 23° NNE 00:45:06 10° NNE visible
31 May 12.2 02:23:47 11° NW 02:23:52 11° NW 02:25:03 10° NW visible
01 Jun 11.6 00:12:37 20° NE 00:12:37 20° NE 00:14:18 10° NNE visible
01 Jun 12.0 01:53:18 15° NW 01:53:18 15° NW 01:55:54 10° NNW visible
01 Jun 11.6 23:42:03 17° NE 23:42:03 17° NE 23:43:22 10° NE visible
02 Jun 11.7 01:22:44 21° NW 01:22:44 21° NW 01:25:56 10° N visible
02 Jun 11.7 23:11:23 14° NE 23:11:23 14° NE 23:12:15 10° NE visible
03 Jun 11.3 00:52:03 28° NW 00:52:03 28° NW 00:55:42 10° N visible
03 Jun 11.8 22:40:35 11° ENE 22:40:35 11° ENE 22:40:50 10° ENE visible
04 Jun 10.8 00:21:14 38° NNW 00:21:14 38° NNW 00:25:17 10° N visible
04 Jun 10.2 23:50:15 53° NNW 23:50:15 53° NNW 23:54:44 10° NNE visible
05 Jun 9.5 23:19:01 78° NNE 23:19:01 78° NNE 23:24:05 10° NNE visible
